User: anonymous   Login
Location: Unspecified
(0.0000°N, 0.0000°E)
Time: 03:46:42
(UTC+00:00)
Language:

A-11 Canister half - Orbit

View from above orbital plane
View from above orbital plane
View from above satellite
View from above satellite

Ground track
Ground track

The orbit data is extracted from the following two-line orbital elements,

1 00053U 60009E   17230.05917931 -.00000084  00000-0  00000+0 0  9993
2 00053  47.2750 208.7574 0100346 265.3216  93.6106 12.17204273542574
Epoch (UTC): 18 August 2017 01:25:13
Eccentricity: 0.0100346
inclination: 47.2750°
perigee height: 1524 km
apogee height: 1685 km
right ascension of ascending node: 208.7574°
argument of perigee: 265.3216°
revolutions per day: 12.17204273
mean anomaly at epoch: 93.6106°
orbit number at epoch: 54257

The dashed part of the orbit path shows where the satellite is in the earth's shadow,  

DLR